• Join FlightAware (Why Join?)
  • Login
  • US Flag 
07:26AM EDT


 

Airport Tracker/Info


-or-


 

Live Flight TrackerFlight Track Log ✈ N892PB ✈ 17-Jul-2013 ✈ KCRG - KCRG

Flight Track Log - Related Links

Times and Time Zones

All times are in EDT time to prevent confusion due to time zone crossing. See the N892PB flight status page for this flight to view local times or setup timezone preferences in your user account.

Time Position Orientation Groundspeed Altitude Reporting Facility
EDT Latitude Longitude Course Direction KTS MPH feet Rate Location/Type
02:22PM 30.3406 -81.5086 303° West 153 176 400  Level Jacksonville Center
02:23PM 30.3703 -81.5611 310° West 216 249 3,700 2,400 Climbing Jacksonville Center
02:24PM 30.3731 -81.6236 273° West 179 206 6,400 2,340 Climbing Jacksonville Center
02:25PM 30.3711 -81.6597 266° West 180 207 7,400 1,860 Climbing Jacksonville Center
02:26PM 30.3697 -81.7128 268° West 192 221 9,300 1,800 Climbing Jacksonville Center
02:27PM 30.3639 -81.7756 264° West 200 230 11,100 1,860 Climbing Jacksonville Center
02:28PM 30.3581 -81.8333 263° West 200 230 13,100 1,800 Climbing Jacksonville Center
02:29PM 30.3503 -81.9008 262° West 200 230 14,800 1,680 Climbing Jacksonville Center
02:30PM 30.3447 -81.9756 265° West 239 275 16,500 1,620 Climbing Jacksonville Center
02:31PM 30.3347 -82.0525 261° West 239 275 18,100 1,800 Climbing Jacksonville Center
02:32PM 30.3311 -82.1247 267° West 233 268 20,200 1,440 Climbing Jacksonville Center
02:33PM 30.3294 -82.1969 268° West 224 258 21,000 600 Climbing Jacksonville Center
02:34PM 30.3256 -82.2908 267° West 283 326 21,500 660 Climbing Jacksonville Center
02:35PM 30.3197 -82.3800 266° West 304 350 22,400 1,200 Climbing Jacksonville Center
02:36PM 30.3158 -82.4786 267° West 310 357 23,900 780 Climbing Jacksonville Center
02:37PM 30.3119 -82.5797 267° West 310 357 24,000  Climbing Jacksonville Center
02:38PM 30.3144 -82.6736 272° West 322 371 24,000  Level Jacksonville Center
02:39PM 30.3186 -82.8036 272° West 342 394 24,000 480 Level Jacksonville Center
02:40PM 30.3019 -82.9119 260° West 350 403 25,000 960 Climbing Jacksonville Center
02:41PM 30.2206 -82.9286 190° South 273 314 26,000 480 Climbing Jacksonville Center
02:42PM 30.1350 -82.9239 177° South 262 302 26,000 480 Level Jacksonville Center
02:43PM 30.0536 -82.8972 164° South 286 329 27,000 1,020 Climbing Jacksonville Center
02:44PM 30.0514 -82.8061 92° East 206 237 28,100 840 Climbing Jacksonville Center
02:45PM 30.0639 -82.7150 81° East 229 264 28,700 420 Climbing Jacksonville Center
02:46PM 30.0764 -82.6333 80° East 259 298 29,000 120 Climbing Jacksonville Center
02:47PM 30.0844 -82.5350 85° East 284 327 29,000  Level Jacksonville Center
02:48PM 30.0967 -82.4292 82° East 309 356 29,000  Level Jacksonville Center
02:49PM 30.1128 -82.3139 81° East 327 376 29,000  Level Jacksonville Center
02:50PM 30.2003 -82.2869 15° North 273 314 29,000  Level Jacksonville Center
02:51PM 30.2986 -82.3103 348° North 333 383 29,000  Level Jacksonville Center
02:52PM 30.3989 -82.3219 354° North 364 419 29,000  Level Jacksonville Center
02:53PM 30.4347 -82.4108 295° West 329 379 29,000  Level Jacksonville Center
02:54PM 30.4308 -82.5239 268° West 295 339 29,000  Level Jacksonville Center
02:55PM 30.4292 -82.6325 269° West 323 372 29,000  Level Jacksonville Center
02:56PM 30.4083 -82.7361 257° West 331 381 29,000  Level Jacksonville Center
02:57PM 30.3250 -82.7747 202° Southwest 287 330 29,000  Level Jacksonville Center
02:58PM 30.2394 -82.8061 198° South 296 341 29,000  Level Jacksonville Center
02:59PM 30.1558 -82.8372 198° South 311 358 29,000  Level Jacksonville Center
03:00PM 30.0703 -82.8661 196° South 319 367 29,000  Level Jacksonville Center
03:01PM 29.9867 -82.8950 197° South 319 367 29,000  Level Jacksonville Center
03:02PM 29.9136 -82.9167 194° South 306 352 29,000  Level Jacksonville Center
03:03PM 29.8406 -82.9022 170° South 273 314 29,000  Level Jacksonville Center
03:04PM 29.7781 -82.8567 148° Southeast 257 296 29,000  Level Jacksonville Center
03:05PM 29.7133 -82.8114 149° Southeast 263 303 29,000  Level Jacksonville Center
03:06PM 29.6486 -82.7706 151° Southeast 263 303 29,000  Level Jacksonville Center
03:07PM 29.6192 -82.6967 115° Southeast 246 283 29,000  Level Jacksonville Center
03:08PM 29.6003 -82.5964 102° East 258 297 29,000  Level Jacksonville Center
03:09PM 29.5811 -82.5153 105° East 263 303 29,000  Level Jacksonville Center
03:10PM 29.6164 -82.4506 58° Northeast 222 255 29,000 -360 Level Jacksonville Center
03:11PM 29.7022 -82.4647 352° North 214 246 28,300 -780 Descending Jacksonville Center
03:12PM 29.7769 -82.4139 31° Northeast 268 308 27,500 -720 Descending Jacksonville Center
03:13PM 29.8144 -82.3517 55° Northeast 322 371 27,100 -1,080 Descending Jacksonville Center
03:13PM 29.8581 -82.2914 50° Northeast 327 376 26,000 -1,380 Descending Jacksonville Center
03:14PM 29.8850 -82.2578 47° Northeast 304 350 25,400 -1,800 Descending Jacksonville Center
03:15PM 29.9492 -82.1567 54° Northeast 343 395 23,300 -2,400 Descending Jacksonville Center
03:16PM 30.0050 -82.0700 53° Northeast 349 402 20,600 -2,700 Descending Jacksonville Center
03:17PM 30.0586 -81.9806 55° Northeast 344 396 17,900 -3,000 Descending Jacksonville Center
03:18PM 30.0833 -81.9444 52° Northeast 296 341 16,100 -3,420 Descending Jacksonville Center
03:18PM 30.1308 -81.8719 53° Northeast 307 353 13,000 -3,660 Descending Jacksonville Center
03:19PM 30.1556 -81.8283 57° Northeast 304 350 10,700 -4,200 Descending Jacksonville Center
03:20PM 30.1989 -81.7581 54° Northeast 281 323 6,500 -3,360 Descending Jacksonville Center
03:21PM 30.2422 -81.7000 49° Northeast 252 290 4,000 -2,100 Descending Jacksonville Center
03:22PM 30.2628 -81.6683 53° Northeast 205 236 3,200 -1,440 Descending Jacksonville Center
03:23PM 30.2978 -81.6222 49° Northeast 191 220 1,800 -900 Descending Jacksonville Center
03:24PM 30.3308 -81.5858 44° Northeast 132 152 1,400 -480 Descending Jacksonville Center
03:25PM 30.3536 -81.5614 43° Northeast 116 133 900 -600 Descending Jacksonville Center
03:26PM 30.3511 -81.5325 96° East 117 135 300 -600 Descending Jacksonville Center
03:28PM 30.3363 -81.5144 90° East  Level Estimated